Location: Bjelajci
(45.0103°N, 16.1758°E)
Time: 09:49:11
(UTC+00:00)

Cosmos 2346 Rocket - Pass Details

Date: 14 July 2020
Orbit: 936 x 981 km, 82.9° (Epoch: 07 August)

Event Time Altitude Azimuth Distance (km) Brightness Sun altitude
Rises 00:46:20 0° 350° (N) 3,659 8.4 -19.2°
Reaches altitude 10° 00:48:52 10° 350° (N) 2,702 7.6 -19.0°
Maximum altitude 00:55:02 84° 265° (W) 963 4.4 -18.5°
Enters shadow 00:58:51 25° 178° (S) 1,825 5.4 -18.2°
